Salvador, Brazil

8:29 PM BRT on February 24, 2017 (GMT -0300)
DEP. L. E. Magalhaes International

Weather History for SBSV - October, 2012

Change the Weather History Date:

Monday, October 29, 2012

  Actual Average Record
Temperature  
Mean Temperature 78 °F -  
Max Temperature 84 °F 83 °F 87 °F (2004)
Min Temperature 72 °F 73 °F 72 °F (2012)
Cooling Degree Days 13    
Growing Degree Days 28 (Base 50)    
Moisture  
Dew Point 67 °F    
Average Humidity 67    
Maximum Humidity 78    
Minimum Humidity 49    
Precipitation  
Precipitation 0.00 in - - ()
Sea Level Pressure  
Sea Level Pressure 29.97 in    
Wind  
Wind Speed 9 mph ()    
Max Wind Speed 17 mph    
Max Gust Speed -    
Visibility 7.2 miles    
Events      
Averages and records for this station are not official NWS values.
T = Trace of Precipitation, MM = Missing Value Source: Averaged Metar Reports

Daily Weather History Graph

Daily Weather History Graph

Search for Another Location

Airport or City:

Trip Planner

Search our weather history database for the weather conditions in past years. The results will help you decide how hot, cold, wet, or windy it might be!

Date:

Astronomy

Oct. 29, 2012 Rise Set
Actual Time 5:00 AM BRT 5:33 PM BRT
Civil Twilight 4:38 AM BRT 5:55 PM BRT
Nautical Twilight 4:13 AM BRT 6:21 PM BRT
Astronomical Twilight 3:47 AM BRT 6:46 PM BRT
Moon 5:30 PM BRT (10/29) 4:38 AM BRT (10/29)
Length of Visible Light 13h 16m
Length of Day
12h 32m
Full, 100% of the Moon is Illuminated
Oct 29
Full
Oct 29
Full
Nov 6
Last Quarter
Nov 13
New
Nov 20
First Quarter

Hourly Weather History & Observations

Time (BRT) Temp. Heat Index Dew Point Humidity Pressure Visibility Wind Dir Wind Speed Gust Speed Precip Events Conditions
12:00 AM 75.2 °F - 66.2 °F 73% 29.95 in 6.2 mi East 10.4 mph - N/A   Partly Cloudy
1:00 AM 75.2 °F - 66.2 °F 73% 29.95 in 6.2 mi ENE 6.9 mph - N/A   Partly Cloudy
2:00 AM 75.2 °F - 66.2 °F 73% 29.95 in 6.2 mi East 6.9 mph - N/A   Partly Cloudy
3:00 AM 75.2 °F - 66.2 °F 73% 29.95 in 6.2 mi East 6.9 mph - N/A   Partly Cloudy
4:00 AM 75.2 °F - 66.2 °F 73% 29.98 in 6.2 mi East 6.9 mph - N/A   Partly Cloudy
5:00 AM 73.4 °F - 66.2 °F 78% 29.98 in 6.2 mi West 3.5 mph - N/A   Scattered Clouds
6:00 AM 73 °F - 66 °F 73% 30.01 in 12 mi West 1.2 mph - -   Scattered Clouds
6:00 AM 73.4 °F - 66.2 °F 78% 30.01 in 6.2 mi West 1.2 mph - N/A   Scattered Clouds
7:00 AM 78.8 °F - 68.0 °F 69% 30.04 in 6.2 mi ENE 11.5 mph - N/A   Scattered Clouds
8:00 AM 80.6 °F 82.7 °F 66.2 °F 61% 30.04 in 6.2 mi East 12.7 mph - N/A   Partly Cloudy
9:00 AM 82 °F - 67 °F 51% 30.05 in 12 mi East 15.0 mph - -   Scattered Clouds
10:00 AM 82.4 °F 84.6 °F 66.2 °F 58% 30.04 in - East 13.8 mph - N/A   Clear
11:00 AM 82.4 °F 85.4 °F 68.0 °F 62% 30.01 in - East 17.3 mph - N/A   Clear
12:00 PM 83 °F - 67 °F 49% 29.99 in 12 mi ENE 17.3 mph - -  
12:00 PM 82.4 °F 84.6 °F 66.2 °F 58% 29.98 in - ENE 17.3 mph - N/A   Clear
1:00 PM 84.2 °F 88.4 °F 69.8 °F 62% 29.95 in - East 15.0 mph - N/A   Clear
2:00 PM 82.4 °F 85.4 °F 68.0 °F 62% 29.92 in 6.2 mi East 17.3 mph - N/A   Partly Cloudy
3:00 PM 83 °F - 69 °F 54% 29.91 in 12 mi East 15.0 mph - -   Scattered Clouds
3:00 PM 82.4 °F 86.3 °F 69.8 °F 66% 29.89 in 6.2 mi East 15.0 mph - N/A   Partly Cloudy
4:00 PM 80.6 °F 82.7 °F 66.2 °F 61% 29.89 in 6.2 mi East 16.1 mph - N/A   Partly Cloudy
5:00 PM 78.8 °F - 68.0 °F 69% 29.92 in 6.2 mi East 13.8 mph - N/A   Partly Cloudy
6:00 PM 78.8 °F - 68.0 °F 69% 29.92 in 6.2 mi East 15.0 mph - N/A   Partly Cloudy
7:00 PM 78.8 °F - 68.0 °F 69% 29.95 in 6.2 mi East 12.7 mph - N/A   Partly Cloudy
8:00 PM 78.8 °F - 68.0 °F 69% 29.98 in 6.2 mi ENE 12.7 mph - N/A   Scattered Clouds
9:00 PM 78.8 °F - 69.8 °F 74% 29.98 in 6.2 mi East 9.2 mph - N/A   Scattered Clouds
10:00 PM 77.0 °F - 68.0 °F 74% 29.98 in 6.2 mi ENE 6.9 mph - N/A   Partly Cloudy
11:00 PM 77.0 °F - 68.0 °F 74% 29.98 in 6.2 mi East 11.5 mph - N/A   Partly Cloudy